Time,TemperatureF,DewpointF,PressureIn,WindDirection,WindDirectionDegrees,WindSpeedMPH,WindSpeedGustMPH,Humidity,HourlyPrecipIn,Conditions,Clouds,dailyrainin,SoftwareType,DateUTC
2013-10-07 00:01:00,59.1,59.1,30.13,SE,143,4.4,11.3,100,0.00,,,0.00,VWS V14.01,2013-10-07 04:01:00,
2013-10-07 00:03:00,59.0,59.0,30.13,South,172,5.8,9.0,100,0.00,,,0.00,VWS V14.01,2013-10-07 04:03:00,
2013-10-07 00:05:00,59.0,59.0,30.13,East,79,3.9,8.8,100,0.00,,,0.00,VWS V14.01,2013-10-07 04:05:00,
2013-10-07 00:09:00,59.1,59.1,30.13,ENE,70,2.5,5.6,100,0.00,,,0.00,VWS V14.01,2013-10-07 04:09:00,
2013-10-07 00:11:00,59.1,59.1,30.13,SE,138,3.0,7.7,100,0.00,,,0.00,VWS V14.01,2013-10-07 04:11:00,
2013-10-07 00:17:00,59.2,59.2,30.13,ESE,108,2.5,5.2,100,0.00,,,0.00,VWS V14.01,2013-10-07 04:17:00,
2013-10-07 00:23:00,59.3,59.3,30.13,SSE,153,3.6,6.2,100,0.00,,,0.00,VWS V14.01,2013-10-07 04:23:00,
2013-10-07 00:29:00,59.3,59.3,30.12,SSE,158,7.9,8.1,100,0.00,,,0.00,VWS V14.01,2013-10-07 04:29:00,
2013-10-07 00:35:00,59.4,59.4,30.12,SSE,156,4.9,7.0,100,0.00,,,0.00,VWS V14.01,2013-10-07 04:35:00,
2013-10-07 00:41:00,59.5,59.5,30.12,SE,128,3.6,8.2,100,0.00,,,0.00,VWS V14.01,2013-10-07 04:41:00,
2013-10-07 00:47:00,59.6,59.6,30.12,SSE,148,6.2,8.2,100,0.00,,,0.00,VWS V14.01,2013-10-07 04:47:00,
2013-10-07 00:53:00,59.5,59.5,30.12,SSE,152,6.6,7.3,100,0.00,,,0.00,VWS V14.01,2013-10-07 04:53:00,
2013-10-07 00:59:00,59.5,59.5,30.12,SE,124,7.4,9.5,100,0.00,,,0.00,VWS V14.01,2013-10-07 04:59:00,
2013-10-07 01:05:00,59.7,59.7,30.12,East,86,4.0,8.2,100,0.00,,OVC011,0.00,VWS V14.01,2013-10-07 05:05:00,
2013-10-07 01:11:00,59.8,59.8,30.12,SSE,149,4.4,7.5,100,0.00,,OVC011,0.00,VWS V14.01,2013-10-07 05:11:00,
2013-10-07 01:17:00,59.8,59.8,30.12,ESE,103,6.8,8.8,100,0.00,,OVC011,0.00,VWS V14.01,2013-10-07 05:17:00,
2013-10-07 01:23:00,59.8,59.8,30.12,SSE,156,5.2,7.7,100,0.00,,OVC011,0.00,VWS V14.01,2013-10-07 05:23:00,
2013-10-07 01:29:00,59.9,59.9,30.11,SE,124,4.5,8.0,100,0.00,,OVC011,0.00,VWS V14.01,2013-10-07 05:29:00,
2013-10-07 01:35:00,60.0,60.0,30.11,SSE,159,4.6,8.4,100,0.00,,OVC011,0.00,VWS V14.01,2013-10-07 05:35:00,
2013-10-07 01:41:00,60.1,60.1,30.11,SSE,152,4.3,7.9,100,0.00,,OVC011,0.00,VWS V14.01,2013-10-07 05:41:00,
2013-10-07 01:47:00,60.2,60.2,30.11,SE,135,4.1,8.8,100,0.00,,OVC011,0.00,VWS V14.01,2013-10-07 05:47:00,
2013-10-07 01:53:00,60.2,60.2,30.11,SE,131,6.4,8.8,100,0.00,,OVC009,0.00,VWS V14.01,2013-10-07 05:53:00,
2013-10-07 01:59:00,60.3,60.3,30.10,SSE,166,3.9,7.0,100,0.00,,OVC009,0.00,VWS V14.01,2013-10-07 05:59:00,
2013-10-07 02:05:00,60.3,60.3,30.10,SSE,149,9.3,10.2,100,0.00,,OVC009,0.00,VWS V14.01,2013-10-07 06:05:00,
2013-10-07 02:11:00,60.4,60.4,30.10,ESE,118,2.5,7.5,100,0.00,,OVC009,0.00,VWS V14.01,2013-10-07 06:11:00,
2013-10-07 02:17:00,60.5,60.5,30.10,South,183,4.7,7.8,100,0.00,,OVC009,0.00,VWS V14.01,2013-10-07 06:17:00,
2013-10-07 02:23:00,60.5,60.5,30.10,ESE,112,3.8,7.9,100,0.00,,OVC009,0.00,VWS V14.01,2013-10-07 06:23:00,
2013-10-07 02:29:00,60.6,60.6,30.10,SSE,156,4.1,7.0,100,0.00,,OVC009,0.00,VWS V14.01,2013-10-07 06:29:00,
2013-10-07 02:35:00,60.8,60.8,30.09,ENE,77,3.2,8.3,100,0.00,,OVC009,0.00,VWS V14.01,2013-10-07 06:35:00,
2013-10-07 02:41:00,60.8,60.8,30.09,SSE,153,3.8,6.5,100,0.00,,OVC009,0.00,VWS V14.01,2013-10-07 06:41:00,
2013-10-07 02:47:00,61.0,61.0,30.09,SE,138,2.5,7.8,100,0.00,,OVC009,0.00,VWS V14.01,2013-10-07 06:47:00,
2013-10-07 02:53:00,61.1,61.1,30.09,South,174,6.0,6.4,100,0.00,,OVC009,0.00,VWS V14.01,2013-10-07 06:53:00,
2013-10-07 02:59:00,61.2,61.2,30.09,SSW,201,3.7,5.2,100,0.00,,OVC009,0.00,VWS V14.01,2013-10-07 06:59:00,
2013-10-07 03:05:00,61.3,61.3,30.09,East,83,2.5,2.5,100,0.00,,OVC007,0.00,VWS V14.01,2013-10-07 07:05:00,
2013-10-07 03:11:00,61.5,61.5,30.08,ESE,112,2.5,5.2,100,0.00,,OVC007,0.00,VWS V14.01,2013-10-07 07:11:00,
2013-10-07 03:17:00,61.5,61.5,30.08,SW,232,3.5,7.6,100,0.00,,OVC007,0.00,VWS V14.01,2013-10-07 07:17:00,
2013-10-07 03:23:00,61.7,61.7,30.08,South,176,7.8,8.8,100,0.00,,OVC007,0.00,VWS V14.01,2013-10-07 07:23:00,
2013-10-07 03:29:00,61.7,61.7,30.08,SSE,163,4.6,7.9,100,0.00,,OVC007,0.00,VWS V14.01,2013-10-07 07:29:00,
2013-10-07 03:35:00,61.6,61.6,30.08,East,83,3.7,7.2,100,0.00,,OVC007,0.00,VWS V14.01,2013-10-07 07:35:00,
2013-10-07 03:41:00,61.6,61.6,30.08,SE,146,7.2,7.2,100,0.00,,OVC007,0.00,VWS V14.01,2013-10-07 07:41:00,
2013-10-07 03:47:00,61.7,61.7,30.08,ESE,112,7.3,12.3,100,0.00,,OVC007,0.00,VWS V14.01,2013-10-07 07:47:00,
2013-10-07 03:53:00,61.7,61.7,30.07,SSE,150,3.9,7.8,100,0.00,,OVC007,0.00,VWS V14.01,2013-10-07 07:53:00,
2013-10-07 03:59:00,61.9,61.9,30.07,ESE,122,3.6,8.6,100,0.00,,OVC007,0.00,VWS V14.01,2013-10-07 07:59:00,
2013-10-07 04:05:00,61.9,61.9,30.07,SE,131,6.8,8.8,100,0.00,,OVC005,0.00,VWS V14.01,2013-10-07 08:05:00,
2013-10-07 04:11:00,61.9,61.9,30.07,South,187,5.7,9.1,100,0.00,,OVC005,0.00,VWS V14.01,2013-10-07 08:11:00,
2013-10-07 04:17:00,62.1,62.1,30.07,South,190,6.3,9.5,100,0.00,,OVC005,0.00,VWS V14.01,2013-10-07 08:17:00,
2013-10-07 04:23:00,62.0,62.0,30.07,South,179,5.8,8.3,100,0.00,,OVC005,0.00,VWS V14.01,2013-10-07 08:23:00,
2013-10-07 04:29:00,62.0,62.0,30.07,East,91,7.3,7.9,100,0.00,,OVC005,0.00,VWS V14.01,2013-10-07 08:29:00,
2013-10-07 04:35:00,62.0,62.0,30.07,South,176,7.0,10.0,100,0.00,,OVC005,0.00,VWS V14.01,2013-10-07 08:35:00,
2013-10-07 04:41:00,62.0,62.0,30.06,ESE,107,4.1,12.1,100,0.00,,OVC005,0.00,VWS V14.01,2013-10-07 08:41:00,
2013-10-07 04:47:00,62.1,62.1,30.06,SE,139,7.3,8.7,100,0.00,,OVC005,0.00,VWS V14.01,2013-10-07 08:47:00,
2013-10-07 04:53:00,62.1,62.1,30.06,SSE,148,5.0,8.2,100,0.00,,OVC005,0.00,VWS V14.01,2013-10-07 08:53:00,
2013-10-07 04:59:00,62.1,62.1,30.06,SSE,166,6.7,7.7,100,0.00,,OVC005,0.00,VWS V14.01,2013-10-07 08:59:00,
2013-10-07 05:05:00,62.1,62.1,30.06,SE,124,5.4,9.0,100,0.00,,,0.00,VWS V14.01,2013-10-07 09:05:00,
2013-10-07 05:11:00,62.0,62.0,30.06,SE,131,4.9,8.8,100,0.00,,,0.00,VWS V14.01,2013-10-07 09:11:00,
2013-10-07 05:17:00,62.1,62.1,30.06,South,170,4.9,10.1,100,0.00,,,0.00,VWS V14.01,2013-10-07 09:17:00,
2013-10-07 05:23:00,62.1,62.1,30.06,SSE,155,5.0,7.2,100,0.00,,,0.00,VWS V14.01,2013-10-07 09:23:00,
2013-10-07 05:29:00,62.1,62.1,30.06,SE,132,5.5,8.7,100,0.00,,,0.00,VWS V14.01,2013-10-07 09:29:00,
2013-10-07 05:35:00,62.0,62.0,30.06,SE,143,6.6,9.2,100,0.00,,,0.00,VWS V14.01,2013-10-07 09:35:00,
2013-10-07 05:41:00,61.9,61.9,30.06,ESE,108,5.1,9.6,100,0.00,,,0.00,VWS V14.01,2013-10-07 09:41:00,
2013-10-07 05:47:00,61.9,61.9,30.06,SE,127,6.4,11.6,100,0.00,,,0.00,VWS V14.01,2013-10-07 09:47:00,
2013-10-07 05:53:00,62.0,62.0,30.06,NE,48,4.1,9.3,100,0.00,,,0.00,VWS V14.01,2013-10-07 09:53:00,
2013-10-07 05:59:00,62.1,62.1,30.06,SSW,194,3.6,6.2,100,0.00,,,0.00,VWS V14.01,2013-10-07 09:59:00,
2013-10-07 06:05:00,62.1,62.1,30.06,SSE,162,3.9,6.5,100,0.00,,,0.00,VWS V14.01,2013-10-07 10:05:00,
2013-10-07 06:11:00,62.1,62.1,30.06,SSE,158,4.8,6.5,100,0.00,,,0.00,VWS V14.01,2013-10-07 10:11:00,
2013-10-07 06:17:00,62.2,62.2,30.06,SE,142,6.7,6.8,100,0.00,,,0.00,VWS V14.01,2013-10-07 10:17:00,
2013-10-07 06:23:00,62.2,62.2,30.05,South,170,5.2,7.0,100,0.00,,,0.00,VWS V14.01,2013-10-07 10:23:00,
2013-10-07 06:29:00,62.3,62.3,30.06,East,87,2.5,2.5,100,0.00,,,0.00,VWS V14.01,2013-10-07 10:29:00,
2013-10-07 06:35:00,62.5,62.5,30.06,SSE,166,4.8,6.0,100,0.00,,,0.00,VWS V14.01,2013-10-07 10:35:00,
2013-10-07 06:41:00,62.4,62.4,30.06,SE,139,5.0,8.0,100,0.00,,,0.00,VWS V14.01,2013-10-07 10:41:00,
2013-10-07 06:47:00,62.6,62.6,30.05,SE,142,4.2,6.5,100,0.00,,,0.00,VWS V14.01,2013-10-07 10:47:00,
2013-10-07 06:53:00,62.7,62.7,30.05,SSE,150,3.9,5.4,100,0.00,,,0.00,VWS V14.01,2013-10-07 10:53:00,
2013-10-07 06:59:00,62.8,62.8,30.05,ESE,114,2.9,3.3,100,0.00,,,0.00,VWS V14.01,2013-10-07 10:59:00,
2013-10-07 07:05:00,62.9,62.9,30.06,ESE,114,2.5,2.5,100,0.00,,,0.00,VWS V14.01,2013-10-07 11:05:00,
2013-10-07 07:11:00,63.1,63.1,30.05,East,101,2.5,3.5,100,0.00,,,0.00,VWS V14.01,2013-10-07 11:11:00,
2013-10-07 07:17:00,63.5,63.5,30.05,East,101,2.5,2.5,100,0.00,,,0.00,VWS V14.01,2013-10-07 11:17:00,
2013-10-07 07:23:00,64.0,64.0,30.06,South,184,3.3,5.4,100,0.00,,,0.00,VWS V14.01,2013-10-07 11:23:00,
2013-10-07 07:29:00,64.4,64.4,30.05,South,176,2.5,3.4,100,0.00,,,0.00,VWS V14.01,2013-10-07 11:29:00,
2013-10-07 07:35:00,65.0,65.0,30.05,South,172,2.5,6.7,100,0.00,,,0.00,VWS V14.01,2013-10-07 11:35:00,
2013-10-07 07:41:00,65.7,65.7,30.05,SE,141,3.0,6.8,100,0.00,,,0.00,VWS V14.01,2013-10-07 11:41:00,
2013-10-07 07:47:00,65.9,65.9,30.05,SSW,211,3.8,5.9,100,0.00,,,0.00,VWS V14.01,2013-10-07 11:47:00,
2013-10-07 07:53:00,66.4,66.4,30.05,East,100,4.2,7.6,100,0.00,,,0.00,VWS V14.01,2013-10-07 11:53:00,
2013-10-07 07:59:00,67.1,67.1,30.05,ESE,115,2.5,6.7,100,0.00,,,0.00,VWS V14.01,2013-10-07 11:59:00,
2013-10-07 08:05:00,67.0,67.0,30.05,SW,219,5.0,9.0,100,0.00,,,0.00,VWS V14.01,2013-10-07 12:05:00,
2013-10-07 08:11:00,67.3,67.3,30.05,SSE,156,6.7,7.1,100,0.00,,,0.00,VWS V14.01,2013-10-07 12:11:00,
2013-10-07 08:17:00,67.4,67.4,30.05,South,177,3.6,3.9,100,0.00,,,0.00,VWS V14.01,2013-10-07 12:17:00,
2013-10-07 08:23:00,67.3,67.3,30.05,NE,55,2.8,11.4,100,0.00,,,0.00,VWS V14.01,2013-10-07 12:23:00,
2013-10-07 08:29:00,67.4,67.4,30.04,SW,214,5.9,6.9,100,0.00,,,0.00,VWS V14.01,2013-10-07 12:29:00,
2013-10-07 08:35:00,67.7,67.7,30.04,SSE,153,6.2,8.7,100,0.00,,,0.00,VWS V14.01,2013-10-07 12:35:00,
2013-10-07 08:41:00,67.8,67.8,30.05,SE,125,6.7,7.0,100,0.00,,,0.00,VWS V14.01,2013-10-07 12:41:00,
2013-10-07 08:47:00,68.1,68.1,30.04,ESE,105,5.4,10.6,100,0.00,,,0.00,VWS V14.01,2013-10-07 12:47:00,
2013-10-07 08:53:00,67.8,67.8,30.04,South,174,10.0,10.7,100,0.00,,,0.00,VWS V14.01,2013-10-07 12:53:00,
2013-10-07 08:59:00,67.5,67.5,30.04,South,180,2.5,7.6,100,0.00,,,0.00,VWS V14.01,2013-10-07 12:59:00,
2013-10-07 09:05:00,67.4,67.4,30.04,SE,128,2.5,6.8,100,0.00,,,0.00,VWS V14.01,2013-10-07 13:05:00,
2013-10-07 09:11:00,67.3,67.3,30.04,SE,141,10.5,10.5,100,0.00,,,0.00,VWS V14.01,2013-10-07 13:11:00,
2013-10-07 09:17:00,67.1,67.1,30.04,South,190,5.9,6.6,100,0.00,,,0.00,VWS V14.01,2013-10-07 13:17:00,
2013-10-07 09:23:00,67.3,67.3,30.03,SE,129,4.4,8.3,100,0.00,,,0.00,VWS V14.01,2013-10-07 13:23:00,
2013-10-07 09:29:00,67.3,67.3,30.03,NNE,13,2.5,7.7,100,0.00,,,0.00,VWS V14.01,2013-10-07 13:29:00,
2013-10-07 09:35:00,67.4,67.4,30.03,ENE,60,5.2,9.0,100,0.00,,,0.00,VWS V14.01,2013-10-07 13:35:00,
2013-10-07 09:41:00,67.6,67.6,30.02,ESE,121,5.9,9.1,100,0.00,,-RA,0.00,VWS V14.01,2013-10-07 13:41:00,
2013-10-07 09:47:00,67.8,67.8,30.03,SSW,200,5.6,10.0,100,0.00,,-RA,0.00,VWS V14.01,2013-10-07 13:47:00,
2013-10-07 09:53:00,68.4,68.4,30.02,SSE,159,3.6,7.5,100,0.00,,RA,0.00,VWS V14.01,2013-10-07 13:53:00,
2013-10-07 09:59:00,68.4,68.4,30.02,SE,139,3.3,10.2,100,0.00,,RA,0.00,VWS V14.01,2013-10-07 13:59:00,
2013-10-07 10:05:00,68.6,68.6,30.02,SE,125,5.7,9.5,100,0.00,,-RA,0.00,VWS V14.01,2013-10-07 14:05:00,
2013-10-07 10:11:00,68.8,68.8,30.02,South,191,7.3,10.3,100,0.00,,-RA,0.00,VWS V14.01,2013-10-07 14:11:00,
2013-10-07 10:17:00,68.5,68.5,30.02,WNW,283,5.5,12.1,100,0.00,,-RA,0.00,VWS V14.01,2013-10-07 14:17:00,
2013-10-07 10:23:00,68.5,68.5,30.02,SE,146,4.3,5.8,100,0.00,,RA,0.00,VWS V14.01,2013-10-07 14:23:00,
2013-10-07 10:29:00,68.7,68.7,30.02,SSE,160,4.4,8.1,100,0.00,,RA,0.00,VWS V14.01,2013-10-07 14:29:00,
2013-10-07 10:35:00,69.1,69.1,30.01,South,177,7.1,7.1,100,0.00,,RA,0.00,VWS V14.01,2013-10-07 14:35:00,
2013-10-07 10:41:00,69.6,69.6,30.01,SE,146,3.3,10.3,100,0.00,,RA,0.00,VWS V14.01,2013-10-07 14:41:00,
2013-10-07 10:47:00,69.6,69.6,30.01,South,179,2.5,4.7,100,0.00,,RA,0.00,VWS V14.01,2013-10-07 14:47:00,
2013-10-07 10:53:00,69.7,69.7,30.01,SW,228,3.4,8.3,100,0.00,,RA,0.00,VWS V14.01,2013-10-07 14:53:00,
2013-10-07 10:59:00,70.1,70.1,30.01,WSW,238,4.1,9.8,100,0.00,,RA,0.00,VWS V14.01,2013-10-07 14:59:00,
2013-10-07 11:05:00,70.5,70.5,30.00,SE,125,6.6,9.7,100,0.00,,BKN046,0.00,VWS V14.01,2013-10-07 15:05:00,
2013-10-07 11:11:00,70.6,70.6,30.00,NE,56,4.5,9.3,100,0.00,,BKN046,0.00,VWS V14.01,2013-10-07 15:11:00,
2013-10-07 11:17:00,70.2,70.2,30.00,West,271,3.1,9.5,100,0.00,,BKN046,0.00,VWS V14.01,2013-10-07 15:17:00,
2013-10-07 11:23:00,69.8,69.8,30.00,West,260,7.5,11.7,100,0.00,,BKN046,0.00,VWS V14.01,2013-10-07 15:23:00,
2013-10-07 11:29:00,70.5,70.5,30.00,West,269,9.0,13.9,100,0.00,,BKN046,0.00,VWS V14.01,2013-10-07 15:29:00,
2013-10-07 11:35:00,70.3,70.3,30.00,NW,304,5.0,15.2,100,0.00,,BKN046,0.00,VWS V14.01,2013-10-07 15:35:00,
2013-10-07 11:41:00,70.5,70.5,29.99,NNE,18,5.0,11.0,100,0.00,,BKN046,0.00,VWS V14.01,2013-10-07 15:41:00,
2013-10-07 11:47:00,70.4,70.4,29.99,SE,136,6.9,12.1,100,0.00,,BKN046,0.00,VWS V14.01,2013-10-07 15:47:00,
2013-10-07 11:53:00,70.7,70.7,29.99,SW,228,6.5,9.1,100,0.00,,BKN046,0.00,VWS V14.01,2013-10-07 15:53:00,
2013-10-07 11:59:00,71.5,71.5,29.98,SW,214,8.2,9.6,100,0.00,,BKN046,0.00,VWS V14.01,2013-10-07 15:59:00,
2013-10-07 12:05:00,72.0,72.0,29.98,South,183,5.2,13.2,100,0.00,,BKN035,0.00,VWS V14.01,2013-10-07 16:05:00,
2013-10-07 12:11:00,72.1,72.1,29.98,South,174,4.0,12.3,100,0.00,,BKN035,0.00,VWS V14.01,2013-10-07 16:11:00,
2013-10-07 12:17:00,72.1,72.1,29.97,SSE,167,4.4,10.0,100,0.00,,BKN035,0.00,VWS V14.01,2013-10-07 16:17:00,
2013-10-07 12:23:00,71.7,71.7,29.97,SW,229,6.4,10.8,100,0.00,,BKN035,0.00,VWS V14.01,2013-10-07 16:23:00,
2013-10-07 12:29:00,71.8,71.8,29.97,South,180,3.9,14.4,100,0.00,,BKN030,0.00,VWS V14.01,2013-10-07 16:29:00,
2013-10-07 12:35:00,71.9,71.9,29.96,South,174,7.4,9.8,100,0.00,,BKN030,0.00,VWS V14.01,2013-10-07 16:35:00,
2013-10-07 12:41:00,72.4,72.4,29.96,SW,222,4.2,8.7,100,0.00,,BKN030,0.00,VWS V14.01,2013-10-07 16:41:00,
2013-10-07 12:47:00,72.1,72.1,29.96,SSE,150,5.1,12.6,100,0.00,,BKN039,0.00,VWS V14.01,2013-10-07 16:47:00,
2013-10-07 12:53:00,72.4,72.4,29.95,NW,308,5.6,12.6,100,0.00,,BKN039,0.00,VWS V14.01,2013-10-07 16:53:00,
2013-10-07 12:59:00,72.3,72.3,29.95,WSW,245,8.1,14.4,100,0.00,,BKN039,0.00,VWS V14.01,2013-10-07 16:59:00,
2013-10-07 13:05:00,72.9,72.9,29.95,ESE,112,7.0,14.2,100,0.00,,BKN060,0.00,VWS V14.01,2013-10-07 17:05:00,
2013-10-07 13:11:00,73.9,73.9,29.94,WSW,257,10.0,12.1,100,0.00,,BKN060,0.00,VWS V14.01,2013-10-07 17:11:00,
2013-10-07 13:17:00,73.7,73.7,29.94,South,179,5.7,13.6,100,0.00,,BKN060,0.00,VWS V14.01,2013-10-07 17:17:00,
2013-10-07 13:23:00,73.3,73.3,29.93,South,179,7.8,13.1,100,0.00,,BKN060,0.00,VWS V14.01,2013-10-07 17:23:00,
2013-10-07 13:29:00,72.9,72.9,29.93,SSW,204,5.9,12.4,100,0.00,,BKN060,0.00,VWS V14.01,2013-10-07 17:29:00,
2013-10-07 13:35:00,73.3,73.3,29.93,SSE,150,5.6,13.7,100,0.00,,OVC060,0.00,VWS V14.01,2013-10-07 17:35:00,
2013-10-07 13:41:00,72.7,72.7,29.93,SSW,200,13.6,13.6,100,0.00,,OVC060,0.00,VWS V14.01,2013-10-07 17:41:00,
2013-10-07 13:47:00,72.4,72.4,29.93,SE,141,10.0,16.5,100,0.00,,OVC060,0.00,VWS V14.01,2013-10-07 17:47:00,
2013-10-07 13:53:00,72.7,72.7,29.92,NE,56,5.8,18.8,100,0.00,,OVC060,0.00,VWS V14.01,2013-10-07 17:53:00,
2013-10-07 13:59:00,72.0,72.0,29.92,East,93,5.5,14.2,100,0.00,,OVC060,0.00,VWS V14.01,2013-10-07 17:59:00,
2013-10-07 14:05:00,72.4,72.4,29.92,ESE,121,2.5,9.9,100,0.00,,BKN055,0.00,VWS V14.01,2013-10-07 18:05:00,
2013-10-07 14:11:00,71.7,71.7,29.92,WSW,250,7.2,13.4,100,0.00,,BKN055,0.00,VWS V14.01,2013-10-07 18:11:00,
2013-10-07 14:17:00,72.0,72.0,29.92,WNW,301,5.6,15.5,100,0.00,,BKN055,0.00,VWS V14.01,2013-10-07 18:17:00,
2013-10-07 14:23:00,71.7,71.7,29.92,SSW,202,4.4,11.0,100,0.00,,BKN055,0.00,VWS V14.01,2013-10-07 18:23:00,
2013-10-07 14:29:00,70.7,70.7,29.91,SW,214,3.7,11.9,100,0.00,,BKN055,0.00,VWS V14.01,2013-10-07 18:29:00,
2013-10-07 14:35:00,71.3,71.3,29.91,West,278,4.4,7.8,100,0.00,,BKN055,0.00,VWS V14.01,2013-10-07 18:35:00,
2013-10-07 14:41:00,71.4,71.4,29.91,WSW,246,8.2,12.2,100,0.00,,BKN055,0.00,VWS V14.01,2013-10-07 18:41:00,
2013-10-07 14:47:00,71.6,71.6,29.91,SW,229,5.2,11.9,100,0.00,,BKN055,0.00,VWS V14.01,2013-10-07 18:47:00,
2013-10-07 14:53:00,71.5,71.5,29.91,WNW,302,5.7,12.6,100,0.00,,BKN055,0.00,VWS V14.01,2013-10-07 18:53:00,
2013-10-07 14:59:00,71.2,71.2,29.91,West,277,3.8,11.3,100,0.00,,BKN055,0.00,VWS V14.01,2013-10-07 18:59:00,
2013-10-07 15:05:00,71.1,71.1,29.91,SSW,193,3.4,14.7,100,0.00,,BKN044,0.00,VWS V14.01,2013-10-07 19:05:00,
2013-10-07 15:11:00,71.3,71.3,29.90,West,266,2.5,5.2,100,0.00,,BKN044,0.00,VWS V14.01,2013-10-07 19:11:00,
2013-10-07 15:17:00,71.8,71.8,29.90,SW,228,5.4,13.0,100,0.00,,BKN044,0.00,VWS V14.01,2013-10-07 19:17:00,
2013-10-07 15:23:00,72.3,72.3,29.90,SW,224,11.6,16.5,100,0.00,,BKN044,0.00,VWS V14.01,2013-10-07 19:23:00,
2013-10-07 15:29:00,72.5,72.5,29.90,WSW,252,9.8,12.6,100,0.00,,BKN044,0.00,VWS V14.01,2013-10-07 19:29:00,
2013-10-07 15:35:00,72.6,72.6,29.90,WSW,239,7.1,13.4,100,0.00,,BKN044,0.00,VWS V14.01,2013-10-07 19:35:00,
2013-10-07 15:41:00,72.4,72.4,29.89,West,280,8.2,15.7,100,0.00,,BKN044,0.00,VWS V14.01,2013-10-07 19:41:00,
2013-10-07 15:47:00,72.8,72.8,29.89,West,273,5.7,11.9,100,0.00,,BKN044,0.00,VWS V14.01,2013-10-07 19:47:00,
2013-10-07 15:53:00,73.1,73.1,29.89,SW,228,8.0,20.2,100,0.00,,BKN044,0.00,VWS V14.01,2013-10-07 19:53:00,
2013-10-07 15:59:00,73.0,73.0,29.89,South,174,12.2,14.3,100,0.00,,BKN044,0.00,VWS V14.01,2013-10-07 19:59:00,
2013-10-07 16:05:00,72.7,72.7,29.89,WNW,300,5.9,11.5,100,0.00,,BKN050,0.00,VWS V14.01,2013-10-07 20:05:00,
2013-10-07 16:11:00,72.4,72.4,29.89,West,273,3.2,8.9,100,0.00,,BKN050,0.00,VWS V14.01,2013-10-07 20:11:00,
2013-10-07 16:17:00,72.3,72.3,29.89,WSW,238,10.2,15.9,100,0.00,,BKN050,0.00,VWS V14.01,2013-10-07 20:17:00,
2013-10-07 16:23:00,72.3,72.3,29.89,SE,139,8.5,12.1,100,0.00,,BKN050,0.00,VWS V14.01,2013-10-07 20:23:00,
2013-10-07 16:29:00,72.2,72.2,29.89,ESE,122,5.9,11.8,100,0.00,,BKN050,0.00,VWS V14.01,2013-10-07 20:29:00,
2013-10-07 16:35:00,72.1,72.1,29.89,WSW,245,9.3,16.4,100,0.00,,BKN050,0.00,VWS V14.01,2013-10-07 20:35:00,
2013-10-07 16:41:00,72.1,72.1,29.89,SW,224,7.4,10.6,100,0.00,,BKN050,0.00,VWS V14.01,2013-10-07 20:41:00,
2013-10-07 16:47:00,72.1,72.1,29.89,SW,229,6.0,16.0,100,0.00,,BKN050,0.00,VWS V14.01,2013-10-07 20:47:00,
2013-10-07 16:53:00,71.9,71.9,29.89,South,172,5.9,13.2,100,0.00,,BKN050,0.00,VWS V14.01,2013-10-07 20:53:00,
2013-10-07 16:59:00,71.9,71.9,29.89,South,177,7.8,8.7,100,0.00,,BKN050,0.00,VWS V14.01,2013-10-07 20:59:00,
2013-10-07 17:05:00,72.0,72.0,29.89,South,188,4.4,9.7,100,0.00,,BKN080,0.00,VWS V14.01,2013-10-07 21:05:00,
2013-10-07 17:11:00,71.8,71.8,29.89,West,269,6.4,11.4,100,0.00,,BKN080,0.00,VWS V14.01,2013-10-07 21:11:00,
2013-10-07 17:17:00,71.8,71.8,29.88,WSW,242,8.9,14.7,100,0.00,,BKN080,0.00,VWS V14.01,2013-10-07 21:17:00,
2013-10-07 17:23:00,71.8,71.8,29.88,SSW,193,4.7,10.3,100,0.00,,BKN080,0.00,VWS V14.01,2013-10-07 21:23:00,
2013-10-07 17:29:00,71.7,71.7,29.88,South,187,8.1,13.6,100,0.00,,BKN080,0.00,VWS V14.01,2013-10-07 21:29:00,
2013-10-07 17:35:00,71.7,71.7,29.88,West,274,7.0,16.5,100,0.00,,BKN080,0.00,VWS V14.01,2013-10-07 21:35:00,
2013-10-07 17:41:00,71.4,71.4,29.88,ESE,120,5.5,15.8,100,0.00,,BKN080,0.00,VWS V14.01,2013-10-07 21:41:00,
2013-10-07 17:47:00,71.1,71.1,29.88,SE,127,6.0,10.0,100,0.00,,BKN080,0.00,VWS V14.01,2013-10-07 21:47:00,
2013-10-07 17:53:00,71.0,71.0,29.89,WSW,255,8.7,9.1,100,0.00,,BKN080,0.00,VWS V14.01,2013-10-07 21:53:00,
2013-10-07 17:59:00,70.9,70.9,29.89,SW,236,4.8,12.9,100,0.00,,BKN080,0.00,VWS V14.01,2013-10-07 21:59:00,
2013-10-07 18:05:00,70.9,70.9,29.89,SW,228,4.1,15.2,100,0.00,,BKN180,0.00,VWS V14.01,2013-10-07 22:05:00,
2013-10-07 18:11:00,70.7,70.7,29.88,SW,235,7.0,8.8,100,0.00,,BKN180,0.00,VWS V14.01,2013-10-07 22:11:00,
2013-10-07 18:17:00,70.5,70.5,29.88,West,267,4.5,11.6,100,0.00,,BKN180,0.00,VWS V14.01,2013-10-07 22:17:00,
2013-10-07 18:23:00,70.5,70.5,29.88,SW,228,7.7,19.2,100,0.00,,BKN180,0.00,VWS V14.01,2013-10-07 22:23:00,
2013-10-07 18:29:00,70.5,70.5,29.88,SW,222,5.0,9.8,100,0.00,,BKN180,0.00,VWS V14.01,2013-10-07 22:29:00,
2013-10-07 18:35:00,70.6,70.6,29.88,SW,222,4.4,13.1,100,0.00,,BKN180,0.00,VWS V14.01,2013-10-07 22:35:00,
2013-10-07 18:41:00,70.5,70.5,29.89,WSW,256,6.8,15.4,100,0.00,,BKN180,0.00,VWS V14.01,2013-10-07 22:41:00,
2013-10-07 18:47:00,70.3,70.3,29.89,SW,231,6.9,12.1,100,0.00,,BKN180,0.00,VWS V14.01,2013-10-07 22:47:00,
2013-10-07 18:53:00,70.2,70.2,29.89,SSW,205,7.7,9.9,100,0.00,,BKN180,0.00,VWS V14.01,2013-10-07 22:53:00,
2013-10-07 18:59:00,70.5,70.5,29.88,SSW,208,8.6,13.9,100,0.00,,BKN180,0.00,VWS V14.01,2013-10-07 22:59:00,
2013-10-07 19:05:00,70.5,70.5,29.88,West,266,5.2,10.3,100,0.00,,BKN180,0.00,VWS V14.01,2013-10-07 23:05:00,
2013-10-07 19:11:00,70.5,70.5,29.88,SW,214,4.1,13.9,100,0.00,,BKN180,0.00,VWS V14.01,2013-10-07 23:11:00,
2013-10-07 19:17:00,70.4,70.4,29.89,SSW,193,11.2,17.0,100,0.00,,BKN180,0.00,VWS V14.01,2013-10-07 23:17:00,
2013-10-07 19:23:00,70.5,70.5,29.88,WNW,287,3.9,12.7,100,0.00,,BKN180,0.00,VWS V14.01,2013-10-07 23:23:00,
2013-10-07 19:29:00,70.4,70.4,29.88,SSW,205,8.0,8.3,100,0.00,,BKN080,0.00,VWS V14.01,2013-10-07 23:29:00,
2013-10-07 19:35:00,70.5,70.5,29.89,West,278,6.9,10.1,100,0.00,,BKN080,0.00,VWS V14.01,2013-10-07 23:35:00,
2013-10-07 19:41:00,70.6,70.6,29.89,East,89,5.3,9.5,100,0.00,,BKN080,0.00,VWS V14.01,2013-10-07 23:41:00,
2013-10-07 19:47:00,70.6,70.6,29.89,SW,222,7.6,7.6,100,0.00,,BKN080,0.00,VWS V14.01,2013-10-07 23:47:00,
2013-10-07 19:53:00,70.7,70.7,29.89,West,262,6.3,8.7,100,0.00,,BKN080,0.00,VWS V14.01,2013-10-07 23:53:00,
2013-10-07 19:59:00,70.8,70.8,29.89,SSE,153,6.2,10.1,100,0.00,,BKN080,0.00,VWS V14.01,2013-10-07 23:59:00,
2013-10-07 20:05:00,70.6,70.6,29.89,SW,224,7.7,11.4,100,0.00,,OVC085,0.00,VWS V14.01,2013-10-08 00:05:00,
2013-10-07 20:11:00,70.8,70.8,29.88,West,260,7.1,16.1,100,0.00,,OVC085,0.00,VWS V14.01,2013-10-08 00:11:00,
2013-10-07 20:17:00,70.6,70.6,29.88,SW,224,9.1,11.3,100,0.00,,OVC180,0.00,VWS V14.01,2013-10-08 00:17:00,
2013-10-07 20:23:00,70.6,70.6,29.88,SSW,210,3.8,10.2,100,0.00,,OVC180,0.00,VWS V14.01,2013-10-08 00:23:00,
2013-10-07 20:29:00,70.4,70.4,29.88,WNW,283,5.0,13.9,100,0.00,,OVC180,0.00,VWS V14.01,2013-10-08 00:29:00,
2013-10-07 20:35:00,70.5,70.5,29.88,SSW,207,14.0,14.7,100,0.00,,OVC180,0.00,VWS V14.01,2013-10-08 00:35:00,
2013-10-07 20:41:00,70.5,70.5,29.87,WSW,253,3.7,11.9,100,0.00,,OVC180,0.00,VWS V14.01,2013-10-08 00:41:00,
2013-10-07 20:47:00,70.2,70.2,29.87,NW,308,4.1,12.1,100,0.00,,OVC180,0.00,VWS V14.01,2013-10-08 00:47:00,
2013-10-07 20:53:00,69.9,69.9,29.86,SW,233,6.3,11.9,100,0.00,,OVC180,0.00,VWS V14.01,2013-10-08 00:53:00,
2013-10-07 20:59:00,70.1,70.1,29.86,West,274,4.6,16.6,100,0.00,,OVC180,0.00,VWS V14.01,2013-10-08 00:59:00,
2013-10-07 21:05:00,70.0,70.0,29.86,West,263,7.7,9.6,100,0.00,,OVC110,0.00,VWS V14.01,2013-10-08 01:05:00,
2013-10-07 21:11:00,69.9,69.9,29.86,South,188,8.1,9.7,100,0.00,,OVC110,0.00,VWS V14.01,2013-10-08 01:11:00,
2013-10-07 21:17:00,69.9,69.9,29.86,SSE,165,3.4,10.3,100,0.00,,OVC100,0.00,VWS V14.01,2013-10-08 01:17:00,
2013-10-07 21:23:00,69.7,69.7,29.85,SW,221,8.1,15.1,100,0.00,,OVC100,0.00,VWS V14.01,2013-10-08 01:23:00,
2013-10-07 21:29:00,69.7,69.7,29.86,WNW,283,5.0,16.3,100,0.00,,OVC100,0.00,VWS V14.01,2013-10-08 01:29:00,
2013-10-07 21:35:00,69.6,69.6,29.85,WSW,245,6.9,9.7,100,0.00,,OVC100,0.00,VWS V14.01,2013-10-08 01:35:00,
2013-10-07 21:41:00,69.6,69.6,29.86,West,269,6.5,8.8,100,0.00,,OVC100,0.00,VWS V14.01,2013-10-08 01:41:00,
2013-10-07 21:47:00,69.6,69.6,29.86,SW,217,2.5,6.6,100,0.00,,OVC100,0.00,VWS V14.01,2013-10-08 01:47:00,
2013-10-07 21:53:00,69.5,69.5,29.86,NE,39,2.5,6.5,100,0.00,,OVC100,0.00,VWS V14.01,2013-10-08 01:53:00,
2013-10-07 21:59:00,69.5,69.5,29.87,West,267,8.7,9.6,100,0.00,,OVC100,0.00,VWS V14.01,2013-10-08 01:59:00,
2013-10-07 22:05:00,69.4,69.4,29.87,SW,225,4.7,9.3,100,0.00,,-RA,0.00,VWS V14.01,2013-10-08 02:05:00,
2013-10-07 22:11:00,69.1,69.1,29.87,WSW,257,5.4,9.1,100,0.00,,-RA,0.00,VWS V14.01,2013-10-08 02:11:00,
2013-10-07 22:17:00,68.6,68.6,29.87,NNW,335,4.6,5.8,100,0.00,,-RA,0.00,VWS V14.01,2013-10-08 02:17:00,
2013-10-07 22:23:00,68.3,68.3,29.88,West,276,3.8,4.3,100,0.00,,-RA,0.00,VWS V14.01,2013-10-08 02:23:00,
2013-10-07 22:29:00,68.3,68.3,29.88,SW,217,2.5,5.7,100,0.00,,-RA,0.00,VWS V14.01,2013-10-08 02:29:00,
2013-10-07 22:35:00,67.9,67.9,29.88,SW,236,2.5,2.5,100,0.00,,-RA,0.00,VWS V14.01,2013-10-08 02:35:00,
2013-10-07 22:41:00,67.7,67.7,29.88,WSW,257,4.9,5.3,100,0.00,,-RA,0.00,VWS V14.01,2013-10-08 02:41:00,
2013-10-07 22:47:00,67.9,67.9,29.88,WSW,240,2.5,4.2,100,0.00,,-RA,0.00,VWS V14.01,2013-10-08 02:47:00,
2013-10-07 22:53:00,67.8,67.8,29.88,SSW,197,2.5,2.5,100,0.00,,-RA,0.00,VWS V14.01,2013-10-08 02:53:00,
2013-10-07 22:59:00,67.7,67.7,29.88,WSW,240,2.5,2.5,100,0.00,,-RA,0.00,VWS V14.01,2013-10-08 02:59:00,
2013-10-07 23:05:00,67.6,67.6,29.88,WSW,252,3.7,5.2,100,0.00,,OVC041,0.00,VWS V14.01,2013-10-08 03:05:00,
2013-10-07 23:11:00,67.3,67.3,29.88,SW,226,2.5,2.5,100,0.00,,OVC041,0.00,VWS V14.01,2013-10-08 03:11:00,
2013-10-07 23:17:00,67.2,67.2,29.87,WNW,292,4.2,6.4,100,0.00,,OVC041,0.00,VWS V14.01,2013-10-08 03:17:00,
2013-10-07 23:23:00,67.1,67.1,29.88,West,266,2.5,2.5,100,0.00,,OVC041,0.00,VWS V14.01,2013-10-08 03:23:00,
2013-10-07 23:29:00,67.2,67.2,29.88,WSW,238,4.1,6.8,100,0.00,,OVC041,0.00,VWS V14.01,2013-10-08 03:29:00,
2013-10-07 23:35:00,67.0,67.0,29.88,WSW,253,2.5,2.5,100,0.00,,OVC041,0.00,VWS V14.01,2013-10-08 03:35:00,
2013-10-07 23:41:00,67.0,67.0,29.89,SW,225,2.5,2.5,100,0.00,,OVC041,0.00,VWS V14.01,2013-10-08 03:41:00,
2013-10-07 23:47:00,66.0,66.0,29.90,NNE,28,7.5,9.7,100,0.00,,OVC041,0.00,VWS V14.01,2013-10-08 03:47:00,
2013-10-07 23:53:00,62.0,62.0,29.90,NW,309,4.3,6.8,100,0.00,,OVC065,0.00,VWS V14.01,2013-10-08 03:53:00,